[[{"header":{"parameterUnit":"m.s-1","parameterCategory":1,"la1":30.2991,"la2":30.254,"lo1":-89.0895,"lo2":-89.0444,"dy":0.0017,"dx":0.0017,"nx":28,"ny":28,"refTime":"2025-03-21T03:00:00:Z","depth":0,"parameterNumber":2,"parameterNumberName":"U-component_of_WINDS"},"data":[0,0,0,0,0,0,0,0,0,0,0,0,0,0,0,0,0,0,0,0,0,0,0,0,0,0,0,0,0,0,0,0,0,0,0,0,0,0,0,0,0,0,0,0,0,0,0,0,0,0,0,0,0,0,0,0,0,0,1.9403,1.9405,0,1.9648,1.9651,1.9654,1.9669,1.9666,1.9663,1.9661,1.9916,1.9925,1.9934,0,0,0,0,0,0,0,0,0,0,0,0,0,1.8949,1.8958,1.9402,1.9405,1.9409,1.9648,1.9651,1.9654,1.9669,1.9666,1.9663,1.9659,1.9913,1.9924,1.9935,0,0,0,0,0,0,0,0,0,0,0,0,0,1.9166,1.896,1.9402,1.9445,1.9451,1.9647,1.9651,1.9655,1.967,1.9666,1.9662,1.9658,1.9909,1.9923,1.9937,2.0108,0,0,1.998,1.9986,0,0,0,0,0,0,0,0,1.9153,1.9182,1.9435,1.9442,1.9449,1.9623,1.9585,1.9807,1.9671,1.9587,1.9661,1.9656,1.9822,1.9843,1.9899,2.0119,2.013,1.9981,1.9989,1.9996,1.9999,0,0,0,0,0,0,0,1.9138,1.9172,1.95,1.9439,1.9448,1.9453,1.9479,1.9627,1.9725,1.9594,1.9596,1.9624,1.9825,1.9885,1.9905,2.0134,1.9981,1.9993,2.0002,2.0007,2.0508,2.0512,0,0,0,0,0,0,1.9115,1.9159,1.9492,1.9507,1.9288,1.9464,1.9493,1.9572,1.9724,1.9743,1.9628,1.9624,1.9863,1.9888,1.9914,2.0123,1.9995,2.0009,2.0017,2.0503,2.0509,2.0514,0,0,0,0,0,0,1.9105,1.9144,1.9482,1.9334,1.9377,1.9476,1.9565,1.9579,1.9639,1.9749,1.9767,1.967,1.9861,1.9894,2.0059,2.0132,2.0015,2.0028,2.0497,2.0505,2.0511,2.0544,0,0,0,0,0,0,1.9092,1.9141,1.9206,1.9335,1.9385,1.9622,1.9569,1.9587,1.9662,1.966,1.9794,1.9812,1.986,2.0038,2.0073,2.015,2.0039,2.0491,2.05,2.0509,2.0537,2.0552,2.0564,0,0,0,0,0,1.9076,1.9206,1.9209,1.9249,1.9468,1.9626,1.9655,1.9706,1.9668,1.9735,1.9806,1.9808,2.0119,2.0055,2.0094,2.0176,2.0486,2.0498,2.0508,2.0531,2.0549,2.0564,0,0,0,0,0,0,1.9085,1.9224,1.9229,1.9405,1.9504,1.9629,1.9715,1.9724,1.9836,1.983,1.989,1.992,2.0083,2.0147,2.0072,2.035,2.0299,2.0318,2.0302,2.032,2.0334,2.0315,2.0051,0,0,0,0,0,1.9107,1.9222,1.9339,1.9483,1.9532,1.9615,1.9686,1.9716,1.9822,1.9864,1.9947,2.005,2.017,2.0249,2.0366,2.0546,2.0576,2.0623,2.0636,2.0647,2.0663,2.0762,2.0784,2.055,2.0549,2.0549,0,0,1.9155,1.9245,1.9315,1.9487,1.9567,1.9686,1.965,1.9778,1.9867,1.9884,2.0044,2.0109,2.0227,2.04,2.0481,2.0458,2.0734,2.0661,2.0668,2.0679,2.0776,2.0798,2.0818,2.0557,2.0556,2.0554,0,0,1.9302,1.9382,1.9511,1.9591,1.9713,1.9767,1.9797,1.9922,1.9965,2.0126,2.0141,2.0249,2.0456,2.054,2.0609,2.0788,2.0794,2.0825,2.0896,2.0992,2.1011,2.1027,2.1091,2.1113,2.084,2.084,2.084,0,1.9346,1.9525,1.9576,1.9704,1.9779,1.9798,1.9929,2.0006,2.0159,2.0211,2.0184,2.0443,2.0525,2.0717,2.0761,2.0817,2.0854,2.081,2.1004,2.1021,2.1038,2.1099,2.1122,2.0843,2.0843,2.0843,2.0842,0,1.9574,1.9698,1.9787,1.9934,2.0019,2.0148,2.0219,2.03,2.0323,2.038,2.0545,2.0643,2.078,2.0828,2.0853,2.1025,2.1007,2.0991,2.0941,2.1062,2.112,2.1144,2.0847,2.0846,2.0846,2.0845,0,0,1.9735,1.9906,1.9938,2.0005,2.014,2.0237,2.0367,2.05,2.0568,2.0673,2.0784,2.0958,2.0944,2.1023,2.1057,2.1142,2.1276,2.1115,2.1119,2.1141,2.1472,2.1482,2.1509,2.1281,2.1286,2.1289,2.1461,0,1.9897,2.0126,2.0176,2.0374,2.049,2.0509,2.0622,2.0717,2.0774,2.0881,2.0945,2.1067,2.1039,2.1087,2.1171,2.1242,2.1343,2.123,2.1385,2.139,2.1354,2.1539,2.1552,2.1709,2.1485,2.1488,2.1491,0,2.0117,2.0226,2.0435,2.0554,2.0604,2.0705,2.083,2.0932,2.1041,2.1076,2.1164,2.1189,2.1326,2.1268,2.1457,2.1379,2.1445,2.149,2.1497,2.1513,2.1447,2.156,2.1761,2.1784,2.1528,2.1525,2.1522,0,2.0212,2.0412,2.0563,2.0619,2.0762,2.0832,2.0895,2.0999,2.1075,2.1186,2.1236,2.1361,2.143,2.1526,2.1585,2.1538,2.1769,2.1717,2.1803,2.1801,2.185,2.1846,2.2064,2.1894,2.1893,2.1893,2.1892,0,2.0388,2.0516,2.0607,2.07,2.0844,2.0899,2.104,2.1103,2.1196,2.1302,2.1327,2.1426,2.1497,2.1607,2.1654,2.1803,2.1834,2.1866,2.1877,2.1864,2.186,2.1908,2.1899,2.1899,2.1898,2.1896,2.1895,0,2.0519,2.0586,2.0752,2.0872,2.0906,2.1006,2.111,2.1201,2.1258,2.1392,2.1427,2.1517,2.1647,2.1714,2.1877,2.1909,2.2076,2.2081,2.2039,2.2043,2.2125,2.2116,2.2381,2.2418,2.2223,2.2225,2.2226,0,2.0627,2.0725,2.0856,2.0928,2.0992,2.1108,2.1186,2.1245,2.1325,2.1455,2.1531,2.1662,2.177,2.1977,2.2057,2.2182,2.219,2.2274,2.2209,2.2192,2.219,2.2184,2.2194,2.2285,2.2287,2.2288,2.229,0,2.0811,2.0839,2.0949,2.1071,2.1163,2.1262,2.1361,2.1419,2.1493,2.1582,2.1714,2.1798,2.1963,2.2093,2.2224,2.229,2.2303,2.2309,2.2336,2.2323,2.2294,2.2311,2.207,2.2303,2.2302,2.2301,2.23,2.23,2.0934,2.1022,2.1127,2.1249,2.1329,2.142,2.1511,2.1579,2.169,2.1828,2.1856,2.1996,2.2102,2.2279,2.2348,2.2459,2.2442,2.248,2.249,2.2498,2.2502,2.2277,2.2483,2.2483,2.2483,2.2483,2.2482,0,2.1119,2.1187,2.1299,2.1435,2.1531,2.1533,2.1642,2.1722,2.1844,2.1942,2.2047,2.2199,2.2325,2.2414,2.2543,2.2614,2.2623,2.2646,2.2641,2.2656,2.251,2.2474,2.2636,2.2636,2.2636,2.2636,2.2636,2.2636,2.1227,2.1375,2.1415,2.1604,2.1672,2.1808,2.1869,2.1953,2.2031,2.2199,2.2303,2.236,2.2455,2.259,2.2706,2.2729,2.2775,2.2797,2.2821,2.2683,2.2666,2.2651,2.2617,2.2807,2.2807,2.2957,2.2959,2.296]},{"header":{"parameterUnit":"m.s-1","parameterCategory":1,"la1":30.2991,"la2":30.254,"lo1":-89.0895,"lo2":-89.0444,"dy":0.0017,"dx":0.0017,"nx":28,"ny":28,"refTime":"2025-03-21T03:00:00:Z","depth":0,"parameterNumber":3,"parameterNumberName":"V-component_of_WINDS"},"data":[0,0,0,0,0,0,0,0,0,0,0,0,0,0,0,0,0,0,0,0,0,0,0,0,0,0,0,0,0,0,0,0,0,0,0,0,0,0,0,0,0,0,0,0,0,0,0,0,0,0,0,0,0,0,0,0,0,0,-0.7751,-0.775,0,-0.7703,-0.7703,-0.7702,-0.7699,-0.7699,-0.77,-0.77,-0.765,-0.7648,-0.7646,0,0,0,0,0,0,0,0,0,0,0,0,0,-0.7837,-0.7836,-0.7751,-0.775,-0.775,-0.7703,-0.7703,-0.7702,-0.7699,-0.7699,-0.77,-0.77,-0.7651,-0.7648,-0.7646,0,0,0,0,0,0,0,0,0,0,0,0,0,-0.7796,-0.7835,-0.7751,-0.7742,-0.7741,-0.7704,-0.7703,-0.7702,-0.7698,-0.7699,-0.77,-0.7701,-0.7651,-0.7649,-0.7646,-0.7613,0,0,-0.7638,-0.7636,0,0,0,0,0,0,0,0,-0.7798,-0.7793,-0.7744,-0.7743,-0.7741,-0.7708,-0.7715,-0.7672,-0.7698,-0.7715,-0.77,-0.7701,-0.7668,-0.7664,-0.7654,-0.7611,-0.7609,-0.7637,-0.7636,-0.7634,-0.7634,0,0,0,0,0,0,0,-0.7801,-0.7795,-0.7732,-0.7743,-0.7742,-0.774,-0.7735,-0.7707,-0.7688,-0.7713,-0.7713,-0.7707,-0.7668,-0.7656,-0.7652,-0.7608,-0.7637,-0.7635,-0.7633,-0.7632,-0.7536,-0.7535,0,0,0,0,0,0,-0.7806,-0.7797,-0.7734,-0.7731,-0.7772,-0.7738,-0.7733,-0.7718,-0.7688,-0.7684,-0.7707,-0.7707,-0.7661,-0.7656,-0.7651,-0.761,-0.7634,-0.7632,-0.763,-0.7537,-0.7536,-0.7535,0,0,0,0,0,0,-0.7808,-0.78,-0.7735,-0.7764,-0.7755,-0.7736,-0.7719,-0.7716,-0.7705,-0.7683,-0.7679,-0.7698,-0.7661,-0.7655,-0.7623,-0.7608,-0.7631,-0.7628,-0.7538,-0.7537,-0.7536,-0.7529,0,0,0,0,0,0,-0.781,-0.7801,-0.7788,-0.7763,-0.7754,-0.7708,-0.7718,-0.7715,-0.77,-0.7701,-0.7674,-0.7671,-0.7661,-0.7627,-0.762,-0.7605,-0.7626,-0.7539,-0.7538,-0.7536,-0.753,-0.7528,-0.7525,0,0,0,0,0,-0.7813,-0.7788,-0.7788,-0.778,-0.7738,-0.7708,-0.7702,-0.7692,-0.7699,-0.7686,-0.7672,-0.7672,-0.7612,-0.7624,-0.7616,-0.76,-0.754,-0.7538,-0.7536,-0.7532,-0.7528,-0.7525,0,0,0,0,0,0,-0.7811,-0.7785,-0.7784,-0.775,-0.7731,-0.7707,-0.769,-0.7689,-0.7667,-0.7668,-0.7656,-0.765,-0.7619,-0.7606,-0.762,-0.7567,-0.7577,-0.7573,-0.7576,-0.7572,-0.757,-0.7573,-0.7624,0,0,0,0,0,-0.7807,-0.7785,-0.7763,-0.7735,-0.7726,-0.771,-0.7696,-0.769,-0.767,-0.7662,-0.7645,-0.7625,-0.7602,-0.7587,-0.7564,-0.7529,-0.7523,-0.7515,-0.7512,-0.751,-0.7507,-0.7487,-0.7483,-0.7528,-0.7528,-0.7528,0,0,-0.7797,-0.778,-0.7767,-0.7734,-0.7719,-0.7696,-0.7703,-0.7678,-0.7661,-0.7658,-0.7627,-0.7614,-0.7591,-0.7558,-0.7542,-0.7546,-0.7493,-0.7507,-0.7506,-0.7503,-0.7485,-0.748,-0.7476,-0.7527,-0.7527,-0.7528,0,0,-0.7768,-0.7753,-0.7728,-0.7713,-0.769,-0.768,-0.7674,-0.765,-0.7642,-0.7611,-0.7608,-0.7588,-0.7548,-0.7531,-0.7518,-0.7484,-0.7482,-0.7477,-0.7463,-0.7444,-0.744,-0.7437,-0.7424,-0.742,-0.7474,-0.7474,-0.7474,0,-0.7758,-0.7724,-0.7715,-0.7691,-0.7676,-0.7674,-0.7648,-0.7634,-0.7604,-0.7594,-0.76,-0.755,-0.7534,-0.7497,-0.7489,-0.7478,-0.7471,-0.7479,-0.7442,-0.7438,-0.7435,-0.7423,-0.7418,-0.7473,-0.7473,-0.7473,-0.7473,0,-0.7714,-0.769,-0.7673,-0.7645,-0.7629,-0.7604,-0.7591,-0.7576,-0.7572,-0.7561,-0.7529,-0.7511,-0.7484,-0.7475,-0.7471,-0.7437,-0.7441,-0.7444,-0.7453,-0.743,-0.7419,-0.7414,-0.7472,-0.7472,-0.7473,-0.7473,0,0,-0.768,-0.7649,-0.7642,-0.763,-0.7605,-0.7586,-0.7562,-0.7536,-0.7523,-0.7503,-0.7482,-0.7449,-0.7452,-0.7437,-0.7431,-0.7414,-0.7388,-0.742,-0.7419,-0.7414,-0.735,-0.7347,-0.7341,-0.7388,-0.7387,-0.7386,-0.7351,0,-0.7647,-0.7603,-0.7595,-0.7556,-0.7534,-0.7532,-0.751,-0.7492,-0.7482,-0.7462,-0.745,-0.7427,-0.7433,-0.7424,-0.7408,-0.7395,-0.7375,-0.7397,-0.7367,-0.7366,-0.7371,-0.7335,-0.7331,-0.73,-0.7347,-0.7346,-0.7346,0,-0.7602,-0.7582,-0.7542,-0.752,-0.751,-0.7491,-0.7467,-0.7448,-0.7428,-0.7422,-0.7406,-0.7402,-0.7376,-0.7387,-0.7351,-0.7367,-0.7354,-0.7346,-0.7345,-0.734,-0.7353,-0.7329,-0.7289,-0.7284,-0.7338,-0.7339,-0.7339,0,-0.7581,-0.7544,-0.7514,-0.7504,-0.7478,-0.7465,-0.7453,-0.7434,-0.742,-0.7399,-0.739,-0.7367,-0.7353,-0.7336,-0.7325,-0.7335,-0.729,-0.7301,-0.7283,-0.7284,-0.7273,-0.7273,-0.723,-0.7267,-0.7267,-0.7267,-0.7267,0,-0.7544,-0.7519,-0.7504,-0.7486,-0.7458,-0.745,-0.7422,-0.7411,-0.7394,-0.7374,-0.7371,-0.7352,-0.734,-0.7319,-0.7311,-0.7282,-0.7277,-0.727,-0.7268,-0.727,-0.7271,-0.726,-0.7262,-0.7265,-0.7266,-0.7266,-0.7266,0,-0.7515,-0.7504,-0.7472,-0.7451,-0.7445,-0.7425,-0.7407,-0.7389,-0.7379,-0.7354,-0.7347,-0.7332,-0.7307,-0.7296,-0.7265,-0.726,-0.7227,-0.7227,-0.7234,-0.7233,-0.7215,-0.7217,-0.7163,-0.7155,-0.7198,-0.7198,-0.7198,0,-0.7491,-0.7472,-0.7449,-0.7435,-0.7424,-0.7402,-0.7387,-0.7378,-0.7363,-0.734,-0.7325,-0.7301,-0.728,-0.7241,-0.7227,-0.7204,-0.7203,-0.7186,-0.7199,-0.7202,-0.7202,-0.7202,-0.72,-0.7183,-0.7182,-0.7182,-0.7182,0,-0.7451,-0.7447,-0.7426,-0.7403,-0.7386,-0.7368,-0.735,-0.7339,-0.7327,-0.7311,-0.7286,-0.727,-0.724,-0.7215,-0.7192,-0.718,-0.7178,-0.7178,-0.7172,-0.7173,-0.7177,-0.7174,-0.7226,-0.7179,-0.7179,-0.7179,-0.7179,-0.7179,-0.7423,-0.7406,-0.7387,-0.7364,-0.735,-0.7334,-0.7316,-0.7305,-0.7284,-0.7258,-0.7255,-0.7228,-0.7209,-0.7177,-0.7165,-0.7144,-0.7148,-0.714,-0.7138,-0.7136,-0.7135,-0.7182,-0.714,-0.714,-0.714,-0.714,-0.714,0,-0.7381,-0.737,-0.7349,-0.7324,-0.7306,-0.7308,-0.7288,-0.7273,-0.725,-0.7233,-0.7213,-0.7185,-0.7162,-0.7147,-0.7123,-0.7109,-0.7108,-0.7103,-0.7103,-0.7101,-0.7133,-0.7139,-0.7105,-0.7105,-0.7105,-0.7105,-0.7105,-0.7105,-0.7358,-0.7328,-0.7322,-0.7286,-0.7275,-0.7249,-0.7238,-0.7223,-0.7209,-0.7177,-0.7158,-0.7149,-0.7132,-0.7108,-0.7087,-0.7083,-0.7074,-0.7069,-0.7065,-0.7095,-0.7098,-0.7102,-0.7108,-0.7067,-0.7067,-0.7035,-0.7034,-0.7034]}]]